Regional Weather Roundup
Issued by NWS

Home | Current Version | Previous Version | Graphics & Text | Print | Product List | Glossary On
Versions: 1 2 3 4 5 6 7 8 9 10 11 12 13 14 15 16 17 18 19 20 21 22 23 24 25 26 27 28 29 30 31 32 33 34 35 36 37 38 39 40 41 42 43 44 45 46 47 48 49 50
538
ASUS43 KDMX 261303
RWRIA

WEATHER ROUNDUP FOR IOWA
NATIONAL WEATHER SERVICE DES MOINES IA
800 AM CDT FRI AUG 26 2016

NOTE: "FAIR" INDICATES FEW OR NO CLOUDS BELOW 12,000 FEET WITH NO
SIGNIFICANT WEATHER AND/OR OBSTRUCTIONS TO VISIBILITY.

* - THESE STATIONS ARE NOT NWS STATIONS...THUS NOT UNDER NWS
QUALITY CONTROL.  THEY ALSO DO NOT REPORT WEATHER SUCH
AS PRECIPITATION OR FOG.

IAZ001>003-012>014-020>022-031>034-043>046-261400-
   NORTHWEST IOWA

CITY           SKY/WX    TMP DP  RH WIND       PRES   REMARKS
CARROLL *      PTSUNNY   57  57 100 CALM      30.18S
CHEROKEE *     PTSUNNY   55  55 100 CALM      30.19S
DENISON *      CLOUDY    57  57 100 CALM      30.16F FOG
LE MARS *      CLOUDY    54  54 100 CALM      30.19S
ORANGE CITY *  CLOUDY    57  55  94 E3        30.18F
SHELDON *      CLOUDY    54  54 100 CALM      30.18S
SIOUX CITY     CLOUDY    56  54  93 CALM      30.18S
SPENCER        MOSUNNY   54  52  93 CALM      30.20S
STORM LAKE *   PTSUNNY   57  55  94 SE5       30.20R
$$

IAZ055>058-069>071-079>083-090>094-261400-
   SOUTHWEST IOWA

CITY           SKY/WX    TMP DP  RH WIND       PRES   REMARKS
ATLANTIC *     PTSUNNY   59  57  94 CALM      30.18R
AUDUBON *      CLOUDY    59  55  88 CALM      30.19S
CLARINDA *       N/A     64  61  88 MISG      30.19S
COUNCIL BLFS * CLOUDY    63  57  82 E8        30.17S
CRESTON *      CLOUDY    63  61  94 SE5       30.20S
HARLAN  *      CLOUDY    59  59 100 CALM      30.21S
LAMONI         LGT RAIN  61  60  97 N12       30.16F
RED OAK *      CLOUDY    61  61 100 NE5       30.17F
SHENANDOAH *   CLOUDY    63 N/A N/A E6        30.17S
$$

IAZ047>049-059>061-072>074-084-261400-
   CENTRAL IOWA

CITY           SKY/WX    TMP DP  RH WIND       PRES   REMARKS
AMES           PTSUNNY   61  60  97 CALM      30.18F
ANKENY *         N/A    N/A N/A N/A MISG        N/A
BOONE *        CLOUDY    61  59  94 E7        30.18F
CHARITON *     RAIN      64  63  94 MISG      30.19R
DES MOINES     CLOUDY    66  59  78 E6        30.18R
GRINNELL*      CLOUDY    62  59  90 E5        30.19S
KNOXVILLE *    CLOUDY    64  61  88 CALM      30.18R
MARSHALLTOWN   CLOUDY    60  59  96 E5        30.19S
NEWTON *       CLOUDY    63  63 100 E5        30.17F
PELLA *        CLOUDY    62  61  96 CALM      30.19R
PERRY *          N/A     60  59  99 CALM      30.18S
$$

IAZ004>006-015-016-023>025-035-036-261400-
   NORTH CENTRAL IOWA

CITY           SKY/WX    TMP DP  RH WIND       PRES   REMARKS
ALGONA *       MOSUNNY   57  57 100 CALM      30.21R
ESTHERVILLE    CLOUDY    53  53 100 CALM      30.20R
FORT DODGE *   PTSUNNY   57  54  88 CALM      30.20S
MASON CITY     MOSUNNY   58  58 100 CALM      30.22R
FOREST CITY *    N/A    N/A N/A N/A MISG        N/A
WEBSTER CITY * CLOUDY    59  59 100 CALM      30.17F
IOWA FALLS *     N/A     60  58  92 CALM      30.21S
$$

IAZ007>011-017>019-026>030-037>042-050>054-066-261400-
   NORTHEAST IOWA

CITY           SKY/WX    TMP DP  RH WIND       PRES   REMARKS
CEDAR RAPIDS   CLOUDY    65  62  90 NE5       30.19R
CHARLES CITY * CLOUDY    59  59 100 CALM      30.21R
CLINTON *      CLOUDY    65  63  93 NE3       30.19R
DECORAH *      MOSUNNY   57  57 100 CALM      30.20R
DUBUQUE        PTSUNNY   63  61  93 NE5       30.20R
MONTICELLO *   CLOUDY    61  61 100 CALM      30.19R
WATERLOO       MOSUNNY   59  57  93 CALM      30.19S
$$

IAZ064-065-067-068-078-261400-
   EAST CENTRAL IOWA

CITY           SKY/WX    TMP DP  RH WIND       PRES   REMARKS
DAVENPORT      CLOUDY    66  62  87 NE6       30.18R
IOWA CITY      CLOUDY    66  60  81 NE6       30.19S
MT. PLEASANT * LGT RAIN  68  68 100 CALM      30.19R
MUSCATINE *    CLOUDY    66  63  88 NE6       30.18R
QUAD CITIES    CLOUDY    69  61  75 CALM      30.18R
$$

IAZ062-063-075>077-085>089-095>099-261400-
   SOUTHEAST IOWA

CITY           SKY/WX    TMP DP  RH WIND       PRES   REMARKS
BURLINGTON     CLOUDY    66  66 100 N7        30.17R
FAIRFIELD *    PTSUNNY   66  64  94 NE5       30.17S
FORT MADISON * CLOUDY    66  64  94 CALM      30.18R
KEOKUK *       CLOUDY    68  66  94 NE5       30.15R
OSKALOOSA *    LGT RAIN  63  62  98 NE6       30.18F
CENTERVILLE *  LGT RAIN  64  63  94 CALM      30.17S
OTTUMWA        CLOUDY    65  63  93 N6        30.17F
WASHINGTON *   CLOUDY    64  64 100 CALM      30.20F
$$

ABBREVIATIONS USED IN REMARKS
   TC - TEMPERATURES IN CELSIUS
  WCI - WIND CHILL INDEX
   HX - HEAT INDEX
  VSB - VISIBILITY
$$





USA.gov is the U.S. government's official web portal to all federal, state and local government web resources and services.